This is the latest recevied weather packets stored in our database for station/object N9CQS-15. If no packets are shown the sender has not sent any weather packets the latest 10 day(s).
| Time | Temp. | Humidity | Pressure | Rain* | Wind** | Luminosity | Snow |
|---|---|---|---|---|---|---|---|
| 1777955342 | 15.56° C | 72% | 1004 hPa | 0 mm | - | - | - |
| 1777954741 | 16.67° C | 68% | 1004.2 hPa | 0.25 mm | - | - | - |
| 1777954141 | 17.22° C | 62% | 1004.1 hPa | 0 mm | - | - | - |
| 1777953542 | 18.33° C | 70% | 1003 hPa | 0 mm | - | - | - |
| 1777952942 | 17.78° C | 71% | 1002.6 hPa | 0 mm | - | - | - |
| 1777952341 | 17.78° C | 70% | 1002.8 hPa | 0 mm | - | - | - |
| 1777951742 | 17.22° C | 73% | 1003 hPa | 0 mm | - | - | - |
| 1777951142 | 17.22° C | 74% | 1002.9 hPa | 0 mm | - | - | - |
| 1777950542 | 18.33° C | 71% | 1002.7 hPa | 0.25 mm | - | - | - |
| 1777949942 | 20° C | 58% | 1002.5 hPa | 0 mm | - | - | - |
| 1777949342 | 20° C | 58% | 1002.4 hPa | 0 mm | - | - | - |
| 1777948741 | 20° C | 57% | 1002.4 hPa | 0 mm | - | - | - |
| 1777948141 | 20° C | 56% | 1002.4 hPa | 0 mm | - | - | - |
| 1777947541 | 20° C | 55% | 1002.2 hPa | 0 mm | - | - | - |
| 1777946942 | 20° C | 55% | 1002.1 hPa | 0 mm | - | - | - |
| 1777946341 | 20° C | 55% | 1002 hPa | 0 mm | - | - | - |
| 1777945741 | 20.56° C | 54% | 1001.9 hPa | 0 mm | - | - | - |
| 1777945142 | 20.56° C | 54% | 1001.7 hPa | 0 mm | - | - | - |
| 1777944542 | 20.56° C | 54% | 1001.5 hPa | 0 mm | - | - | - |
| 1777943941 | 21.11° C | 54% | 1001.5 hPa | 0 mm | - | - | - |
| 1777943342 | 21.11° C | 53% | 1001.5 hPa | 0 mm | - | - | - |
| 1777942742 | 21.11° C | 53% | 1001.5 hPa | 0 mm | - | - | - |
| 1777942142 | 21.11° C | 53% | 1001.4 hPa | 0 mm | - | - | - |
| 1777941541 | 21.67° C | 53% | 1001.2 hPa | 0 mm | - | - | - |
| 1777940943 | 21.67° C | 53% | 1001 hPa | 0 mm | - | - | - |
* Rain latest hour (hover to see other rain measurements)
** Current wind speed in m/s (hover to see current wind gust speed)